Theta_e
354 360 363 363 372 357 349 350 345 348 349 348 349 349 349 349 355 359 345 346 347 349 349 352 350 349 351 350 350 351 352 350 349 349 351 348 349 348 348 348 348 349 350 349 345 348 352 351 349
362 363 364 369 357 354 351 346 349 348 349 348 348 349 346 351 347 347 346 346 346 347 347 350 351 349 350 350 352 352 352 352 350 350 349 349 348 348 348 348 346 345 349 351 346 352 351 351 352
365 364 371 359 351 351 350 347 347 347 347 348 348 344 343 347 346 346 345 343 343 345 348 350 353 352 353 351 350 350 349 350 350 350 348 349 346 343 347 343 340 341 347 347 353 353 353 352 352
364 367 362 349 351 349 346 346 346 347 346 344 344 347 345 343 345 345 344 343 343 343 350 351 354 354 353 353 352 348 348 347 349 348 347 345 345 346 347 342 339 346 346 348 351 351 351 348 349
361 355 350 350 349 348 347 345 345 346 346 343 341 346 348 344 345 344 343 342 343 344 350 351 353 354 354 353 352 351 345 343 344 346 347 346 343 335 342 341 343 345 348 351 352 352 352 353 352
360 345 351 352 350 348 348 344 342 342 342 341 343 347 347 344 345 344 342 342 343 345 348 351 353 354 354 354 351 350 350 347 344 344 344 339 338 341 344 341 343 345 351 352 352 352 352 350 347
354 345 349 350 351 348 348 344 341 342 343 343 340 345 344 344 344 344 343 343 345 345 345 349 350 352 353 353 352 350 348 349 349 345 343 340 334 342 346 351 352 353 349 352 352 352 350 350 347
349 352 347 347 346 351 347 345 344 343 345 344 342 346 347 341 342 344 344 345 345 346 346 346 350 351 348 349 354 354 352 349 344 344 347 338 343 348 349 350 353 353 353 351 351 350 347 343 342
349 349 348 349 349 349 347 348 345 343 346 346 344 344 343 341 342 343 343 345 346 345 346 347 345 352 351 351 351 351 350 349 348 346 345 349 348 349 350 351 353 352 353 352 352 346 342 342 341
351 348 349 348 347 348 347 348 345 346 347 347 345 342 341 341 343 342 342 344 344 345 345 345 344 345 349 347 350 349 352 352 350 349 354 351 347 350 348 349 348 343 350 345 347 341 340 340 350
347 350 348 347 347 345 347 347 345 344 347 346 345 343 343 342 343 344 344 344 344 344 345 345 346 345 344 346 348 347 350 346 348 350 348 349 346 347 350 346 349 348 344 348 344 346 346 344 342
349 348 349 348 347 346 347 346 346 346 345 343 343 343 343 344 344 345 345 346 346 346 345 346 346 346 345 346 346 346 347 349 347 348 349 349 348 347 346 344 348 346 349 350 345 347 347 347 348
349 349 349 348 347 347 346 346 347 344 344 343 343 343 344 344 344 344 345 345 345 347 348 346 346 348 349 347 346 346 345 344 347 349 350 347 347 347 345 345 345 344 347 345 344 344 345 347 346
349 350 349 349 349 348 348 347 346 345 343 344 344 345 345 344 344 344 344 345 345 345 347 349 348 349 348 349 348 344 344 344 345 348 347 350 352 348 348 349 348 347 350 350 348 347 348 348 345
348 350 351 350 349 348 348 350 349 345 343 345 345 345 346 345 343 343 344 345 346 346 347 349 349 348 349 350 349 347 346 345 347 349 353 353 353 353 353 350 350 350 352 356 353 352 351 351 348
347 349 354 350 349 348 353 357 348 346 344 345 345 346 346 346 345 344 344 345 346 348 349 349 348 349 350 350 351 350 349 349 347 350 351 354 353 353 353 352 352 351 352 352 353 353 352 352 351
350 348 349 352 349 349 351 354 349 347 346 346 346 346 346 347 347 346 346 346 346 349 350 350 350 350 352 353 353 352 351 351 352 351 348 351 350 351 353 351 352 352 354 354 354 353 353 353 352
346 347 347 350 349 350 351 351 350 349 347 347 346 346 347 346 347 347 347 347 348 348 351 352 351 352 353 354 354 352 353 352 352 351 351 351 351 353 354 353 352 356 354 354 353 355 354 353 353
343 346 346 347 346 350 350 351 352 350 349 349 348 347 347 347 347 346 347 347 347 348 350 352 353 354 355 354 353 352 353 352 352 351 353 354 354 353 355 353 355 356 355 356 356 356 356 354 354
342 344 347 347 346 350 348 350 351 350 350 349 350 350 350 349 349 348 347 347 347 348 350 351 353 355 356 354 353 352 353 351 350 351 354 355 356 357 357 357 354 352 354 356 356 356 355 354 356
342 343 344 346 349 346 349 351 351 350 350 349 349 349 349 349 349 349 348 347 347 347 350 351 353 356 356 354 355 355 354 355 353 354 355 357 358 358 358 357 358 356 349 353 356 355 356 355 354
345 340 342 344 347 345 346 351 353 352 352 351 350 349 348 348 349 349 348 347 347 347 349 351 355 355 356 356 354 354 353 351 353 352 353 355 358 357 357 356 357 359 354 353 356 356 357 354 353
340 339 341 343 346 341 344 340 345 350 350 349 350 348 348 347 347 348 348 347 346 346 347 351 355 355 355 355 356 356 355 352 352 352 358 358 357 357 356 358 357 357 356 357 357 354 355 354 352
337 339 342 343 343 342 343 341 347 346 345 345 345 347 347 347 347 348 347 347 347 346 346 349 354 357 357 358 359 357 356 356 354 355 356 354 354 357 357 358 357 357 356 354 350 349 348 351 354
338 343 352 349 342 342 342 341 340 339 341 342 343 345 345 344 345 347 349 348 348 348 348 349 354 357 356 357 358 358 358 356 356 357 354 353 353 352 354 359 357 354 353 350 345 345 347 349 353
341 342 347 348 343 340 343 344 342 340 340 341 342 341 342 342 344 345 349 348 350 349 350 350 353 358 358 356 357 358 359 357 356 356 354 354 353 354 354 356 353 351 351 345 340 340 344 347 350
341 344 340 342 339 340 340 340 340 341 341 340 340 341 341 341 341 344 348 349 350 350 351 351 352 357 357 356 357 358 359 360 356 355 356 357 357 355 357 356 355 350 348 343 338 336 341 347 349
344 348 346 347 341 339 338 343 343 342 342 341 341 342 342 341 344 345 347 349 351 351 352 352 353 356 357 354 355 357 357 359 358 357 357 358 357 357 358 356 354 350 347 343 339 337 339 341 340
342 343 347 343 339 338 337 341 341 339 339 342 341 342 343 344 345 346 347 348 351 352 352 353 353 355 356 355 354 356 355 357 360 357 357 359 357 357 358 357 355 350 346 340 339 340 340 338 337
340 340 339 348 353 336 339 339 338 339 339 338 340 342 345 346 349 349 349 349 352 353 351 354 353 354 356 354 354 354 355 356 357 358 357 357 359 359 358 357 355 351 347 341 341 339 337 339 340
Wind_Speed
8 7 5 5 4 2 12 12 11 8 15 15 14 10 17 16 14 8 20 15 16 16 14 13 13 14 13 17 15 12 6 8 17 21 26 29 27 24 24 20 17 16 13 14 15 17 18 17 17
6 6 6 2 3 8 11 16 15 16 14 11 8 18 17 21 19 17 16 12 14 19 19 14 14 15 15 18 19 22 17 15 22 23 26 27 26 24 20 18 16 13 11 13 17 17 17 17 16
9 9 7 3 8 10 11 14 11 10 5 9 8 15 11 14 10 21 18 15 14 18 17 13 15 15 16 18 20 24 28 26 24 24 25 28 25 22 15 15 14 11 12 16 17 18 17 17 17
8 7 8 13 15 13 15 11 10 10 9 14 18 14 16 11 16 20 17 17 14 22 17 16 16 16 17 19 20 26 28 29 26 24 25 27 24 21 13 11 9 11 13 18 18 17 16 17 15
16 6 8 13 14 13 12 10 5 10 8 11 17 19 16 16 21 19 15 16 17 19 19 16 16 16 18 20 21 22 29 31 29 25 24 23 20 17 14 12 11 14 17 17 16 16 14 12 11
5 4 10 11 11 13 11 9 12 13 13 14 19 17 15 18 17 16 16 14 16 22 19 17 17 18 18 19 20 21 23 25 27 29 26 28 25 18 15 14 15 16 16 16 14 14 12 10 10
14 7 12 5 6 12 10 10 13 12 12 14 12 16 15 15 15 15 15 14 14 18 17 19 16 17 18 18 19 18 18 19 19 22 23 21 22 15 14 13 11 12 13 13 11 10 9 7 8
11 7 16 14 15 15 9 11 8 13 11 12 13 12 15 17 16 15 14 14 12 14 13 16 19 18 17 16 17 17 17 16 16 17 18 19 13 10 11 12 11 10 9 9 8 8 6 6 5
22 4 13 18 15 12 11 11 8 11 9 8 10 18 21 19 16 15 15 15 13 11 8 15 15 16 16 14 14 15 15 16 17 17 16 17 14 11 11 10 10 9 7 7 6 5 3 3 3
9 13 13 12 15 13 8 11 10 9 12 14 15 20 21 18 15 15 14 15 15 15 9 12 13 15 14 16 12 11 13 12 13 12 10 9 11 9 10 9 8 7 6 5 5 2 1 5 11
12 13 10 11 13 11 10 11 8 7 15 13 16 18 16 16 13 13 13 14 15 16 11 10 13 9 12 11 12 12 15 11 10 9 8 10 8 8 9 8 9 5 5 5 6 3 3 4 2
13 9 10 10 8 10 12 7 10 9 15 16 16 16 14 14 12 12 13 14 14 14 13 15 12 9 10 8 7 7 9 10 10 10 8 8 7 6 4 3 6 4 4 5 3 4 3 4 5
12 9 8 8 7 12 9 9 8 11 14 15 15 14 13 13 12 11 12 11 14 13 12 14 12 10 8 10 5 5 7 8 10 7 6 7 7 4 5 3 3 4 9 6 3 7 6 6 7
8 9 8 6 9 5 10 9 10 11 13 15 14 14 12 13 13 12 12 12 11 13 11 14 13 12 11 7 8 8 6 6 8 8 6 7 4 4 2 3 6 6 4 5 7 6 7 8 9
12 10 10 6 5 6 8 7 15 12 13 15 14 12 11 11 14 12 11 12 14 12 12 12 14 12 11 9 10 8 7 8 8 8 6 5 5 2 3 5 7 8 5 5 8 8 9 11 10
11 15 9 8 6 4 12 9 12 14 14 14 14 12 11 11 12 11 11 11 9 13 10 11 11 13 12 12 9 8 7 7 7 6 7 9 8 8 7 8 9 8 8 8 9 12 8 12 13
20 6 13 8 8 4 8 13 14 13 14 14 14 12 12 11 11 12 12 8 12 11 11 9 8 11 11 11 10 10 9 10 10 9 9 10 9 9 9 10 9 9 9 9 9 9 8 9 9
12 9 9 8 8 6 7 10 15 15 13 13 14 14 12 14 13 14 14 12 10 11 10 9 9 8 9 9 6 9 10 12 12 13 12 13 10 11 10 11 10 9 11 7 8 5 7 8 8
4 13 13 6 7 8 6 10 14 16 14 14 13 14 13 14 15 19 16 16 14 13 13 12 10 9 9 8 8 8 8 11 8 10 8 7 7 7 6 9 7 8 8 7 7 8 10 9 8
6 2 10 7 5 9 6 7 16 16 16 14 14 15 13 12 14 15 17 17 17 17 15 16 14 13 11 8 6 3 9 8 7 7 7 8 7 6 7 7 6 5 9 6 8 9 12 6 13
7 8 8 4 10 5 10 9 8 14 14 13 14 12 14 15 13 14 16 17 18 18 18 18 17 16 14 8 7 5 4 2 6 7 8 8 8 7 7 7 8 8 8 7 6 8 8 9 10
12 5 1 6 10 6 10 11 8 12 12 13 14 15 15 16 16 13 17 17 18 19 19 19 19 19 17 15 11 9 9 7 6 8 9 6 8 8 8 7 8 7 7 5 5 6 7 7 9
8 3 2 8 10 12 2 12 8 10 11 11 14 14 14 13 14 17 15 18 16 17 19 20 20 21 18 19 16 13 13 9 7 6 4 5 7 9 9 8 7 7 7 4 4 6 7 9 9
6 11 13 12 7 9 2 12 13 10 11 10 12 11 9 11 13 12 16 14 13 13 15 18 21 22 19 19 18 15 12 10 7 4 5 11 11 11 11 7 7 6 6 5 5 5 7 8 9
13 11 5 7 4 9 2 5 12 10 9 11 10 9 9 7 6 9 11 14 14 14 15 17 21 23 23 20 18 18 16 13 11 10 12 10 8 7 11 6 7 7 4 5 6 6 7 7 6
10 7 9 9 4 12 6 8 11 13 10 7 8 10 5 4 10 9 10 13 15 16 17 18 21 22 23 24 21 17 16 16 16 13 13 10 11 6 6 6 7 7 6 5 5 6 6 5 5
4 8 14 8 6 8 11 14 13 12 12 11 10 8 8 7 7 7 10 12 17 18 19 19 19 20 22 23 21 18 15 17 17 14 15 12 11 11 10 7 8 7 6 6 5 5 4 4 4
6 21 3 10 2 11 6 15 11 12 10 9 9 9 8 10 8 9 10 12 15 19 20 19 19 20 20 21 21 20 19 17 18 16 14 11 12 11 5 7 8 7 7 6 5 5 5 4 4
10 10 12 7 5 6 9 9 10 5 4 11 10 7 10 11 10 10 9 13 15 17 19 19 19 18 19 21 22 21 20 17 16 18 17 15 15 9 11 11 10 10 8 7 7 6 2 4 5
10 10 8 5 11 4 10 11 9 8 7 2 5 6 5 7 9 9 9 12 14 16 18 19 20 20 19 19 19 21 20 18 18 18 17 16 16 13 14 13 13 12 10 9 8 8 7 8 7
Wind_Direction
179 186 225 220 299 204 74 78 96 114 77 64 57 73 62 29 33 77 117 127 126 111 96 75 75 90 85 64 51 33 51 108 148 144 137 135 132 127 121 113 107 99 98 114 113 109 106 107 108
188 202 224 283 26 76 56 43 42 56 75 94 55 78 72 77 83 103 109 116 117 104 85 74 82 91 88 71 55 62 67 108 134 135 137 133 134 130 121 109 102 98 92 113 110 105 107 107 106
249 242 259 190 95 47 73 75 86 85 98 69 89 55 84 93 65 94 114 111 103 91 86 78 87 93 94 80 69 68 72 99 112 122 130 122 131 128 130 119 92 100 95 114 108 104 105 105 99
250 225 256 57 68 57 70 86 81 97 82 86 105 90 67 69 106 116 123 117 116 91 91 85 94 99 101 91 85 77 80 92 108 109 123 124 123 114 113 116 105 97 112 110 105 103 104 103 97
237 273 84 78 62 64 65 61 64 84 93 102 101 101 91 91 108 120 124 113 103 112 97 92 99 104 101 97 93 88 90 92 98 99 102 113 112 127 102 109 105 105 112 110 108 104 104 109 91
278 336 68 77 78 84 64 82 82 81 88 93 110 102 98 119 124 129 122 120 113 107 104 99 96 101 102 97 100 99 99 102 100 97 97 98 104 116 113 103 103 103 105 110 110 106 106 100 92
248 87 73 45 102 69 80 62 87 103 100 98 122 113 126 128 126 128 118 127 108 107 116 113 106 107 102 100 102 107 111 112 113 111 110 104 95 110 114 112 107 106 114 116 113 108 104 98 88
293 189 67 66 61 81 84 92 87 86 104 98 152 128 141 127 139 127 133 118 108 106 120 111 129 120 114 106 106 106 111 114 117 121 124 123 132 116 108 119 121 117 109 113 118 118 118 101 93
103 341 45 47 72 98 120 107 73 114 110 67 77 123 121 140 139 147 129 122 125 130 136 115 124 107 114 117 116 111 118 120 116 112 121 128 121 112 111 111 116 116 116 125 134 138 139 136 137
21 60 70 17 71 99 98 90 127 119 112 100 97 109 129 142 154 142 151 144 146 138 136 118 119 135 144 121 140 120 131 145 127 119 127 129 124 124 128 124 115 125 148 147 168 163 168 247 225
34 68 56 58 71 99 115 118 162 142 114 127 128 132 140 149 158 147 147 149 143 138 143 145 116 135 143 125 148 148 145 126 127 135 136 123 129 146 168 141 153 149 141 211 191 199 222 283 273
98 71 77 90 102 108 88 128 112 45 110 123 133 139 144 156 155 153 139 126 130 132 149 136 152 148 127 139 167 133 123 125 150 141 150 140 147 168 177 150 127 178 156 227 256 235 265 263 260
97 92 98 101 107 90 128 97 106 108 124 132 132 144 150 147 150 138 122 126 124 139 145 140 145 155 142 145 147 136 133 172 129 143 162 155 172 151 189 172 214 210 212 211 241 246 256 259 259
96 99 103 128 100 122 108 113 133 125 139 135 148 151 156 139 139 135 135 136 134 133 140 130 150 160 161 174 154 162 171 156 136 158 171 169 218 167 147 226 243 216 271 265 248 251 271 258 254
143 126 136 120 135 143 123 148 104 142 146 146 161 161 141 147 135 152 147 139 130 135 138 140 149 155 161 160 168 174 167 166 165 177 178 183 234 181 261 225 244 256 264 253 260 248 254 261 267
163 181 151 139 173 156 112 120 128 150 155 161 163 159 162 143 150 147 155 156 131 123 140 152 154 151 164 166 176 180 152 180 188 182 199 202 215 227 220 234 240 249 247 261 258 264 251 234 257
128 134 114 144 206 140 247 121 149 163 163 168 169 172 172 168 161 168 153 166 149 144 152 158 159 166 161 161 176 175 193 195 203 203 219 202 221 224 234 241 249 241 251 237 245 262 243 274 271
89 144 115 99 153 196 185 112 159 169 175 169 178 175 183 171 185 182 178 174 177 164 165 174 174 164 171 158 184 184 198 194 198 208 219 203 223 224 224 243 247 254 256 235 261 270 254 260 259
329 30 82 105 132 217 163 163 163 176 184 170 185 177 194 187 182 181 192 183 183 186 180 183 184 173 179 186 196 170 193 205 191 206 197 215 236 230 234 248 216 236 263 242 262 259 253 251 244
254 222 81 99 144 231 131 171 151 186 191 181 197 176 190 199 184 194 194 198 195 192 195 189 191 183 189 191 218 230 154 208 172 190 191 206 219 231 243 259 271 301 282 268 267 274 279 268 246
0 47 54 36 150 206 157 117 145 174 195 198 196 204 193 197 209 194 200 204 199 198 199 194 197 187 192 198 194 196 207 224 188 186 206 216 228 242 247 269 266 277 272 279 280 281 272 284 281
255 72 214 301 174 127 227 106 141 174 195 201 212 213 208 202 198 210 198 206 210 202 197 200 197 196 198 198 197 205 219 195 175 202 211 215 225 229 235 248 253 260 268 284 279 279 277 267 269
97 255 264 227 157 157 224 104 117 157 195 198 209 220 213 217 207 196 201 198 206 198 193 197 196 196 199 202 213 196 227 200 220 223 155 215 225 236 237 246 246 245 254 267 265 274 271 283 266
260 237 216 206 231 96 165 130 158 162 149 172 176 198 220 212 203 204 193 187 189 192 192 188 192 197 199 198 206 213 212 238 263 217 235 225 222 216 217 237 245 256 277 273 282 282 267 267 309
239 191 266 16 154 80 107 98 95 109 95 130 145 170 178 188 197 186 194 181 191 184 190 187 190 199 200 203 206 215 218 217 227 234 246 262 259 232 177 209 242 255 237 272 277 271 273 264 276
242 303 258 167 126 126 151 102 108 110 123 108 118 127 128 204 153 162 174 183 181 184 187 193 189 198 203 209 212 217 221 225 228 226 240 243 250 254 240 229 244 243 249 262 270 262 253 240 265
272 257 1 12 177 146 112 114 123 136 151 165 135 134 140 106 96 127 156 179 177 191 187 191 190 200 207 209 211 213 217 226 228 232 232 235 240 247 235 239 230 238 247 260 255 248 249 278 276
50 269 68 202 119 115 102 119 105 137 137 122 144 143 123 114 133 133 153 167 178 191 189 191 191 197 204 211 210 215 217 220 226 231 235 247 239 241 237 233 237 242 252 257 250 248 236 241 253
197 234 173 244 341 143 172 98 113 102 76 142 140 132 127 127 132 143 150 161 174 184 189 196 196 199 206 209 211 212 215 220 218 224 226 230 241 234 227 218 219 224 229 230 236 256 201 223 236
293 231 214 84 306 9 84 111 107 110 84 67 62 125 104 138 142 145 149 161 169 181 189 193 202 204 209 212 215 218 222 223 219 218 227 223 220 225 223 212 215 213 216 221 227 222 214 208 204